This is the latest recevied weather packets stored in our database for station/object EA3KZ-1. If no packets are shown the sender has not sent any weather packets the latest 10 day(s).
| Time | Temp. | Humidity | Pressure | Rain* | Wind** | Luminosity | Snow |
|---|---|---|---|---|---|---|---|
| 1777527674 | 16.11° C | 59% | 1011.1 hPa | 0 mm | - | - | - |
| 1777527071 | 15° C | 61% | 1010.9 hPa | 0 mm | - | - | - |
| 1777526469 | 14.44° C | 62% | 1010.7 hPa | 0 mm | - | - | - |
| 1777525866 | 14.44° C | 61% | 1010.6 hPa | 0 mm | - | - | - |
| 1777525263 | 14.44° C | 61% | 1010.4 hPa | 0 mm | - | - | - |
| 1777524661 | 14.44° C | 63% | 1010.6 hPa | 0 mm | - | - | - |
| 1777524058 | 15° C | 59% | 1010.4 hPa | 0 mm | - | - | - |
| 1777523455 | 15° C | 60% | 1010.2 hPa | 0 mm | - | - | - |
| 1777522853 | 15° C | 62% | 1010.3 hPa | 0 mm | - | - | - |
| 1777522250 | 14.44° C | 64% | 1010.3 hPa | 0 mm | - | - | - |
| 1777521648 | 14.44° C | 64% | 1010.3 hPa | 0 mm | - | - | - |
| 1777521045 | 14.44° C | 63% | 1010.3 hPa | 0 mm | - | - | - |
| 1777520442 | 14.44° C | 63% | 1010.3 hPa | 0 mm | - | - | - |
| 1777519840 | 15° C | 63% | 1010.4 hPa | 0 mm | - | - | - |
| 1777519237 | 14.44° C | 69% | 1010.4 hPa | 0 mm | - | - | - |
| 1777518634 | 15° C | 66% | 1010.4 hPa | 0 mm | - | - | - |
| 1777518032 | 15° C | 67% | 1010.2 hPa | 0 mm | - | - | - |
| 1777517429 | 15° C | 73% | 1010.4 hPa | 0 mm | - | - | - |
| 1777516827 | 15° C | 76% | 1010.4 hPa | 0 mm | - | - | - |
| 1777516224 | 15° C | 77% | 1010.4 hPa | 0 mm | - | - | - |
| 1777515621 | 15° C | 79% | 1010.2 hPa | 0 mm | - | - | - |
| 1777515019 | 15° C | 79% | 1010.3 hPa | 0 mm | - | - | - |
| 1777514416 | 15° C | 80% | 1010.3 hPa | 0 mm | - | - | - |
| 1777513874 | 14.44° C | 79% | 1010.5 hPa | 0 mm | - | - | - |
| 1777513271 | 15° C | 79% | 1010.3 hPa | 0 mm | - | - | - |
* Rain latest hour (hover to see other rain measurements)
** Current wind speed in m/s (hover to see current wind gust speed)